Lapse_Rate
6.1 7.5 5.7 6.6 6.5 6.4 6.6 6.7 6.8 6.6 6.8 6.9 6.9 6.9 6.9 7.2 7.4 7.6 7.5 7.3 7.5 7.4 7.1 7.3 7.4 6.2 7.3 7.8 6.9 6.7 6.7 6.5 6.2 5.8 5.1 4.8 5.2 5.5 5.7 6.5 7.9 9.3 7.3
6.3 8.3 6.2 6.6 6.4 6.3 6.4 6.5 6.5 6.5 6.8 6.8 6.9 7.4 7.2 7.3 7.4 7.9 8.1 7.9 7.5 7.0 6.6 6.8 7.2 7.1 7.0 7.0 7.0 7.2 6.9 6.6 6.5 5.6 5.0 5.0 4.9 5.6 6.3 6.4 8.2 9.1 7.2
7.1 8.4 7.0 6.3 6.4 6.3 6.3 6.0 6.1 6.2 6.6 6.8 7.8 7.8 7.6 7.8 7.7 7.7 8.3 7.7 7.5 7.0 6.7 6.4 6.8 6.8 6.9 7.1 7.0 7.1 7.1 6.8 6.2 5.2 4.9 9.1 9.1 5.5 6.1 7.2 7.7 7.5 7.4
8.6 8.9 9.3 6.6 6.2 6.3 6.2 6.1 6.2 6.3 6.5 6.8 7.1 7.9 8.4 8.1 8.3 8.6 8.1 7.9 7.6 6.9 6.5 6.3 6.2 6.3 6.4 6.6 6.9 6.9 6.6 6.4 5.9 5.3 8.9 9.5 9.5 6.0 6.1 6.8 8.4 8.1 7.8
8.5 8.7 8.9 6.5 6.4 6.5 6.0 6.0 6.2 6.3 6.3 6.4 7.7 8.6 8.3 8.1 8.8 8.7 8.5 8.1 7.6 6.8 6.5 6.3 6.3 6.3 6.3 6.1 6.3 6.6 7.1 6.7 5.9 7.0 9.5 8.6 7.9 8.2 5.8 6.7 8.7 8.6 8.2
9.4 9.4 5.3 5.6 6.1 6.5 5.9 5.9 6.3 6.4 6.3 6.6 7.5 8.2 7.9 8.2 8.8 8.3 8.5 8.0 7.3 6.6 6.5 6.2 6.2 6.1 6.3 6.2 6.4 6.7 7.8 7.3 6.1 9.6 9.4 9.0 7.4 6.0 5.7 6.1 6.9 7.4 8.1
8.0 9.6 6.3 6.2 6.5 6.2 5.9 6.0 6.2 6.4 6.4 6.8 7.4 7.9 7.5 7.2 7.4 7.3 7.7 7.4 7.0 6.6 6.3 6.3 6.2 6.3 6.4 6.4 6.6 6.5 6.3 5.7 7.4 9.5 9.4 9.2 9.0 5.7 5.9 6.3 6.5 6.6 6.9
8.9 8.3 8.5 6.3 6.2 6.2 6.0 5.8 6.0 6.2 6.2 6.4 7.2 7.7 7.6 6.9 6.7 6.8 7.1 7.0 6.9 6.6 6.2 6.2 6.2 6.5 6.5 6.5 6.6 6.5 6.2 5.7 8.4 9.5 9.4 9.3 6.9 5.8 6.4 7.2 7.7 7.5 7.0
9.6 7.5 7.4 8.1 6.8 5.9 6.0 5.9 6.0 6.1 6.2 6.2 6.5 7.1 7.1 6.2 6.2 6.6 6.5 6.7 6.9 6.2 6.0 6.0 6.3 6.4 6.4 6.2 5.9 5.6 5.4 5.4 8.2 9.6 9.5 9.5 5.9 6.3 7.2 7.5 7.2 7.3 7.5
7.3 7.5 8.0 9.4 8.9 8.0 7.1 6.1 6.1 6.4 6.8 6.1 5.9 6.0 5.6 5.6 5.6 5.5 6.0 6.0 6.0 5.9 6.1 6.1 5.8 5.9 5.6 5.4 5.3 5.0 5.3 6.2 9.6 9.1 9.6 8.6 5.5 6.6 7.4 7.7 7.6 7.7 7.7
6.8 6.6 7.5 9.3 9.5 9.1 8.9 6.8 6.1 6.4 7.4 7.2 6.2 5.0 5.3 7.7 7.4 7.2 5.0 4.9 5.3 5.7 5.6 5.5 5.2 5.0 5.1 4.9 4.6 4.8 6.3 8.9 8.8 8.9 9.2 4.9 5.7 6.9 7.7 7.8 8.0 7.5 7.4
7.8 7.3 7.2 8.6 9.6 9.2 8.7 8.1 8.3 9.2 8.5 9.2 8.5 7.3 7.4 7.0 7.5 7.5 5.6 4.6 5.0 5.0 5.0 5.1 5.2 5.6 7.4 8.5 8.4 7.1 8.5 8.2 8.3 8.2 8.4 5.2 6.6 7.7 8.0 8.2 7.2 7.0 7.6
9.2 9.2 7.0 6.6 7.0 8.6 9.1 8.8 9.1 9.3 9.2 9.2 8.7 7.4 7.1 6.9 7.1 7.7 7.9 8.7 8.2 6.3 8.2 7.6 8.0 7.8 7.5 7.6 8.0 8.2 7.3 7.5 8.2 8.1 5.7 5.1 6.7 8.0 8.6 7.7 7.2 7.9 7.0
9.0 8.6 7.0 6.7 5.3 5.9 7.2 8.7 9.1 9.7 9.4 9.3 8.8 7.8 7.4 7.9 7.9 9.2 9.4 8.6 7.8 7.2 8.1 8.0 8.0 7.5 7.5 7.1 6.9 7.4 7.0 7.0 7.6 7.6 6.1 5.1 6.5 7.4 7.6 7.1 7.5 7.1 6.9
8.6 8.0 6.7 6.2 5.5 4.6 6.6 8.3 9.3 9.7 9.6 9.5 9.0 8.2 9.1 9.6 9.7 9.4 8.3 7.2 6.2 7.4 8.2 8.0 7.9 7.6 7.2 7.0 6.8 6.9 7.1 7.4 7.5 7.8 7.5 4.9 6.1 6.5 6.6 6.6 6.6 6.5 6.6
8.9 9.0 8.7 6.3 5.2 4.2 6.4 7.6 8.9 9.6 9.6 9.3 9.2 8.2 8.3 9.5 9.3 7.2 7.0 6.0 7.7 7.6 7.5 7.6 7.0 7.0 7.1 6.6 6.8 6.6 7.0 7.3 7.5 7.5 8.1 5.6 4.9 5.5 5.8 5.7 5.7 5.6 5.8
9.3 9.4 8.8 7.5 7.1 3.8 6.1 7.8 9.4 9.6 9.4 9.2 9.3 8.9 8.4 7.2 7.2 5.6 5.0 5.9 6.9 6.9 7.1 6.3 6.2 6.4 7.0 6.8 7.1 6.9 6.8 7.0 7.5 7.8 7.6 7.5 6.5 4.4 4.6 4.6 4.7 4.8 4.9
9.0 8.5 7.6 6.5 6.7 6.4 7.2 8.6 9.4 9.5 9.3 9.2 8.6 7.1 5.9 5.3 4.8 4.1 4.6 5.6 6.7 6.5 5.9 6.1 6.1 6.4 6.6 6.8 7.2 7.3 7.1 7.0 7.5 7.8 7.4 7.4 6.7 6.8 5.5 3.5 3.5 3.8 4.1
8.5 8.1 7.1 6.0 6.4 6.9 9.3 9.0 8.8 8.7 7.5 5.8 5.3 5.1 4.8 4.3 4.0 3.8 4.7 6.0 6.2 5.5 5.6 5.8 5.4 5.7 6.0 6.4 6.7 7.5 6.8 7.9 8.0 7.7 8.0 7.2 6.1 6.0 6.2 5.1 3.9 4.1 3.5
8.2 7.9 7.2 6.1 6.0 6.5 8.3 7.3 7.5 6.2 5.4 4.3 4.6 4.4 4.6 4.0 4.1 6.0 6.2 6.2 5.5 5.5 5.4 5.4 5.4 4.9 4.9 5.4 6.1 7.0 6.3 7.3 7.5 8.3 8.3 7.7 6.4 5.9 5.9 5.5 5.5 5.8 4.6
7.6 7.2 6.3 5.7 5.1 5.4 5.2 5.1 4.6 2.7 4.2 3.3 3.6 3.6 3.7 3.8 4.7 6.1 6.2 5.4 5.3 5.4 5.0 5.2 5.1 5.2 5.0 5.2 6.7 8.8 7.7 6.9 7.7 8.7 8.5 9.0 6.9 6.2 6.3 6.3 6.2 6.1 6.0
8.4 6.9 6.1 5.4 3.4 5.4 4.8 4.9 3.5 2.6 3.2 2.4 1.7 2.0 2.3 3.4 4.6 5.7 5.5 5.1 4.9 4.6 4.4 4.7 5.0 5.4 5.2 5.2 6.3 7.1 8.1 8.7 9.2 8.4 8.7 7.0 8.0 7.3 6.8 6.4 5.5 5.6 5.7
8.6 6.6 5.5 4.6 3.1 5.4 5.4 5.0 3.4 2.2 1.1 1.4 0.9 1.1 2.2 3.7 4.6 4.7 4.5 4.7 4.3 4.5 4.2 4.4 4.7 5.2 6.2 5.5 5.8 8.0 8.0 7.7 8.3 8.7 8.6 8.6 8.1 8.0 7.6 6.0 5.7 5.8 5.5
8.1 6.4 5.0 2.9 4.7 4.2 2.5 2.7 2.6 3.6 3.5 2.5 1.9 1.1 2.7 4.2 4.7 4.1 4.1 4.3 4.2 4.3 4.2 4.1 4.5 4.9 6.0 6.2 7.2 6.4 6.7 7.6 8.1 8.0 9.0 9.4 9.6 9.1 9.4 8.7 7.0 6.3 6.4
7.5 5.5 3.6 3.2 5.4 2.9 2.4 4.2 5.3 4.1 4.4 3.0 1.5 2.6 3.5 4.5 4.1 3.7 3.9 3.8 4.1 4.1 4.1 4.3 4.4 5.1 5.3 6.4 6.1 6.6 7.7 8.4 9.1 8.5 8.1 8.5 9.4 9.7 9.9 9.9 9.9 9.0 9.5
8.4 4.9 3.1 4.8 4.8 3.3 3.3 4.2 3.5 2.0 0.9 1.3 2.7 3.1 4.1 4.5 3.9 3.8 3.7 3.8 3.9 4.1 4.1 4.2 4.3 4.5 5.2 5.6 6.3 6.5 7.3 8.4 8.7 8.7 8.5 8.6 8.7 9.2 9.7 9.9 9.7 9.8 9.4
Wind_Speed
9 16 18 20 19 19 17 15 12 10 8 7 6 7 9 11 10 9 7 7 8 8 6 7 10 12 1 2 8 8 5 4 6 7 7 6 6 5 3 1 3 8 2
15 18 17 17 19 19 17 15 12 10 8 7 7 8 8 10 8 9 8 5 6 7 7 4 6 7 9 9 8 6 6 5 4 5 5 1 2 4 4 4 3 1 4
16 18 19 19 19 18 17 15 13 11 8 7 8 9 10 11 11 8 6 5 5 7 7 6 6 6 6 7 6 4 3 3 2 2 3 4 3 4 4 5 5 4 4
15 17 19 20 19 18 16 14 13 11 9 8 8 12 10 8 5 5 5 5 5 6 7 7 7 7 6 6 5 4 4 4 4 4 5 4 4 2 7 9 7 9 8
14 17 16 20 20 19 16 14 12 11 10 9 10 11 9 7 6 5 5 4 4 5 5 6 6 6 5 5 5 4 3 2 1 7 5 4 7 4 8 10 10 8 10
13 15 16 20 21 19 16 14 13 11 11 11 11 9 2 5 4 4 6 7 6 5 4 4 4 4 5 5 4 5 7 6 5 5 5 4 6 6 8 10 11 11 11
13 14 17 16 20 18 17 15 13 12 11 10 8 7 3 3 4 5 6 9 7 4 2 2 3 4 4 4 5 5 5 6 7 5 5 5 5 7 9 10 10 12 13
12 12 15 15 20 18 17 16 14 12 11 10 8 6 4 4 6 8 12 9 6 3 1 3 5 5 5 5 5 5 6 6 7 5 6 7 5 9 10 12 13 12 14
11 11 12 15 16 18 16 15 14 14 12 10 8 6 3 5 7 8 10 8 5 2 3 4 5 4 4 4 5 5 4 4 8 7 9 7 9 10 12 12 12 13 15
11 10 10 13 14 15 15 15 14 13 14 13 9 6 6 4 5 7 6 7 4 2 4 5 7 7 7 8 8 6 3 5 6 5 5 7 9 9 10 11 11 13 14
10 12 11 11 13 14 13 15 13 11 12 13 10 8 6 4 4 5 6 4 3 4 6 7 9 8 5 8 8 5 5 4 5 5 5 10 9 9 8 9 9 9 12
12 13 12 12 11 13 12 14 14 12 11 11 9 8 5 5 5 3 5 4 4 5 9 9 8 5 3 4 3 2 5 6 5 5 5 10 8 7 6 9 10 11 11
11 11 13 12 11 12 9 12 11 11 10 9 9 8 7 6 7 6 5 5 4 2 3 3 2 5 5 6 5 5 6 6 5 4 8 10 7 5 9 11 11 12 13
9 12 13 14 14 12 12 10 11 8 11 10 11 10 9 6 6 6 4 4 4 4 3 3 3 4 4 5 5 5 5 5 4 3 8 13 12 10 10 11 11 13 13
11 12 13 13 13 13 13 10 9 8 10 11 11 11 10 7 6 6 6 5 5 3 3 2 3 4 4 5 5 5 5 4 3 1 6 13 12 12 11 12 12 13 13
12 12 12 15 15 14 14 14 10 11 13 11 11 12 11 8 6 6 5 5 5 4 3 3 4 3 3 4 4 4 4 2 1 1 2 8 12 12 12 12 12 13 13
11 11 12 14 15 14 15 13 11 11 13 9 11 13 10 9 11 9 5 4 5 5 4 3 3 3 3 3 4 3 3 1 0 3 2 3 5 11 12 13 13 13 14
11 10 10 10 14 16 15 13 11 11 11 10 11 11 13 13 14 11 5 4 7 5 4 3 3 2 4 4 4 3 3 3 3 3 3 3 3 3 3 11 12 12 14
12 12 10 10 13 15 15 13 12 12 9 10 11 11 15 14 14 11 6 7 7 5 3 3 3 4 5 5 4 4 4 4 4 3 3 2 3 4 5 6 10 9 13
13 12 11 8 11 14 10 8 9 8 8 10 9 11 15 14 15 12 10 9 7 4 4 3 3 4 5 6 5 4 1 3 4 3 2 2 1 3 5 8 12 11 12
11 11 12 11 12 12 10 11 10 7 8 7 6 13 14 13 13 13 9 8 6 5 5 4 3 4 5 7 4 1 2 2 4 5 4 5 1 4 6 8 12 12 12
13 12 12 13 14 14 12 10 6 9 6 7 6 9 12 13 11 13 10 7 7 6 6 5 4 2 3 6 4 3 3 3 1 4 5 1 5 5 7 14 14 13 15
14 13 13 14 16 15 15 9 10 9 8 5 5 5 6 10 11 13 12 8 7 5 5 5 5 5 3 3 5 4 2 2 7 2 3 5 4 6 9 12 14 16 15
15 13 14 14 17 16 16 13 18 11 12 6 8 6 6 10 12 13 12 10 7 5 6 5 4 3 3 3 1 3 3 4 3 5 2 5 5 9 11 9 11 17 15
16 15 15 17 18 18 18 16 14 13 8 9 8 12 9 9 12 13 12 10 8 5 5 5 4 3 3 2 3 3 3 4 5 4 9 6 10 9 9 7 12 10 14
14 15 16 19 19 18 15 15 15 15 15 12 11 9 8 8 8 10 11 9 8 6 6 4 4 3 2 1 3 3 4 4 5 6 9 12 13 11 8 10 7 9 14
Wind_Direction
163 158 172 167 161 154 150 143 135 130 128 130 140 149 152 148 140 123 103 78 51 42 33 19 34 32 141 212 113 110 102 69 46 38 30 29 17 9 2 304 250 247 134
153 160 168 167 154 154 150 144 137 132 131 139 153 157 156 149 144 122 113 89 58 45 41 34 36 40 47 70 78 81 79 61 43 40 20 141 93 5 347 314 287 100 257
155 161 170 161 156 156 153 146 142 138 132 135 142 141 134 114 119 124 107 96 76 52 45 49 42 39 38 48 55 45 29 25 19 24 318 305 332 357 329 310 278 237 255
157 162 166 162 157 156 154 150 146 145 136 124 132 128 113 119 147 156 138 133 102 71 62 60 54 46 39 37 30 20 6 2 9 318 286 330 317 35 319 313 270 248 236
161 164 151 157 158 156 155 152 148 145 141 138 129 135 127 171 158 168 163 150 126 90 78 71 56 42 32 23 8 348 335 342 321 273 346 343 329 20 321 307 296 306 251
166 168 138 157 156 156 154 155 151 146 145 141 143 149 127 219 232 223 201 171 150 125 102 81 50 31 10 10 354 343 352 18 272 335 331 338 297 360 317 308 303 299 292
169 174 161 161 156 155 156 159 155 153 156 156 152 149 131 93 34 314 210 163 155 141 108 49 11 5 347 341 339 345 349 346 313 321 319 325 325 329 310 299 286 286 281
171 169 160 161 156 158 163 163 160 159 159 169 174 176 158 74 21 351 162 152 154 145 59 3 358 347 352 358 354 353 349 337 287 319 327 317 359 320 310 295 292 282 279
172 171 169 175 170 162 165 166 164 163 161 164 176 183 148 90 52 64 115 133 137 79 24 6 353 350 354 12 18 21 357 325 293 332 315 309 18 317 309 313 319 314 309
170 172 176 176 180 182 173 172 172 177 172 159 160 153 128 123 98 88 115 96 96 47 29 14 22 43 51 55 51 37 6 258 339 311 308 4 326 314 320 330 334 328 328
176 177 184 181 184 187 183 173 183 193 186 155 148 142 167 198 180 167 85 96 69 64 49 54 61 57 87 84 60 32 300 348 341 338 336 355 325 323 327 334 348 13 14
186 187 185 189 193 192 184 177 187 180 178 188 180 171 179 179 165 155 122 112 90 85 90 84 76 67 3 12 7 299 347 338 343 333 6 343 338 339 352 44 42 31 30
201 188 192 189 190 199 188 192 188 187 185 184 181 173 152 159 164 173 153 158 150 138 106 114 83 44 29 7 348 347 342 324 326 335 33 1 0 21 56 49 36 41 34
214 206 196 196 188 198 187 200 194 195 188 188 188 178 168 165 164 161 130 102 96 86 95 53 44 34 23 7 350 334 333 324 326 336 57 20 50 55 54 42 38 35 22
222 212 206 202 199 194 194 196 195 196 198 191 184 184 176 169 165 148 123 104 95 99 61 47 24 22 6 351 340 334 334 331 328 26 88 44 53 55 50 40 40 27 20
232 223 207 203 199 199 198 195 191 195 195 189 186 179 177 169 147 129 117 114 106 76 55 38 29 10 354 346 337 340 340 328 352 105 100 82 61 57 50 40 30 21 13
234 231 224 214 200 203 206 198 193 189 188 189 184 172 166 149 140 128 119 126 112 93 75 51 35 356 346 347 339 327 315 310 120 132 104 85 104 66 48 36 25 15 6
253 231 220 214 213 202 206 199 194 187 183 181 173 165 148 140 135 123 118 124 113 101 84 58 7 2 353 347 333 321 298 213 177 136 100 78 57 26 61 27 15 6 357
248 239 223 217 215 206 204 197 190 184 168 158 153 148 143 137 133 124 131 126 111 104 91 75 47 15 5 351 336 314 292 210 193 168 118 50 42 8 345 357 353 340 343
246 238 231 210 199 195 183 175 167 159 149 137 140 143 142 138 137 135 130 123 118 119 102 89 64 47 13 347 322 320 257 191 199 206 239 305 339 340 338 335 333 331 324
237 231 218 196 186 179 169 170 164 152 145 125 122 136 135 134 143 137 127 125 123 107 94 79 77 38 24 354 322 313 223 222 234 238 248 291 244 312 312 327 326 326 323
233 216 208 193 185 184 183 178 158 135 129 118 110 110 120 132 141 135 132 126 123 116 97 74 52 61 40 15 353 306 323 186 167 221 309 258 303 315 324 329 325 323 321
226 209 200 190 185 179 175 146 127 125 113 112 103 105 114 132 135 129 126 125 120 113 100 84 60 34 32 43 20 337 296 308 333 242 238 309 273 321 326 322 316 318 316
219 204 192 181 186 174 161 152 166 161 153 152 140 131 130 134 133 126 127 128 122 118 113 97 78 53 357 15 266 12 336 316 307 304 253 275 310 300 308 309 308 313 309
215 191 183 185 182 168 173 166 169 153 137 137 131 134 138 140 135 131 132 131 123 115 110 108 101 73 51 354 339 319 306 286 265 281 298 307 300 305 302 303 304 293 310
202 183 180 183 179 173 164 162 156 142 138 139 147 145 150 145 137 135 134 127 125 123 124 118 110 88 57 341 301 288 300 304 305 295 291 299 301 306 308 300 292 304 308